Location: Acton
(51.4942°N, 0.2232°W)
Time: 13:44:02
(UTC+00:00)

Okean 1-7 Rocket - Pass Details

Date: 23 January 2021
Orbit: 615 x 650 km, 82.5° (Epoch: 28 February)

Event Time Altitude Azimuth Distance (km) Brightness Sun altitude
Rises 18:40:04 0° 205° (SSW) 2,951 7.5 -19.1°
Reaches altitude 10° 18:42:23 10° 211° (SSW) 2,048 6.7 -19.5°
Maximum altitude 18:46:47 47° 286° (WNW) 861 4.6 -20.2°
Drops below altitude 10° 18:51:14 10° 1° (N) 2,069 6.2 -20.9°
Sets 18:53:35 0° 7° (N) 2,983 6.9 -21.2°
